TA2LKM-12 Weather Reports


time (UTC)temp
C
wind
direction
speed
KPH
gust
KPH
rain 1hr
cm
rain 24hr
cm
rain mn
cm
humidity
%
barometer
mb
20260506033004 8 0 0.0 0.0 0.00 0.00 0.00 99 999.4
20260506030004 8 0 0.0 0.0 0.00 0.00 0.00 99 999.1
20260506023005 8 0 0.0 0.0 0.00 0.00 0.00 95 999.0
20260506020006 7 0 0.0 0.0 0.00 0.00 0.00 89 999.0
20260506013006 6 0 0.0 0.0 0.00 0.00 0.00 89 998.8
20260506010003 7 0 0.0 0.0 0.00 0.00 0.00 89 998.8
20260506003006 7 0 0.0 0.0 0.00 0.00 0.00 10 998.9
20260506000005 7 0 0.0 0.0 0.00 0.00 0.00 89 998.8
20260505233003 8 0 0.0 0.0 0.00 0.00 0.00 88 998.9
20260505230002 9 0 0.0 0.0 0.00 0.00 0.00 89 999.0
20260505223005 10 0 0.0 0.0 0.00 0.00 0.00 88 999.2
20260505220004 11 0 0.0 0.0 0.00 0.00 0.00 85 999.2
20260505213003 11 0 0.0 0.0 0.00 0.00 0.00 83 999.3
20260505210004 11 0 0.0 0.0 0.00 0.00 0.00 83 999.3
20260505203004 11 0 0.0 0.0 0.00 0.00 0.00 83 999.2
20260505200003 12 0 0.0 0.0 0.00 0.00 0.00 80 999.1
20260505193003 12 0 0.0 0.0 0.00 0.00 0.00 79 999.1
20260505190005 12 0 0.0 0.0 0.00 0.00 0.00 78 999.1
20260505183005 12 0 0.0 0.0 0.00 0.00 0.00 84 1278.9
20260505180004 12 0 0.0 0.0 0.00 0.00 0.00 75 999.0
20260505173003 12 0 0.0 0.0 0.00 0.00 0.00 74 998.8
20260505170005 13 0 0.0 0.0 0.00 0.00 0.00 70 998.9
20260505163003 14 0 0.0 0.0 0.00 0.00 0.00 63 998.8
20260505153004 15 0 0.0 0.0 0.00 0.00 0.00 60 998.8
20260505123003 17 0 0.0 0.0 0.00 0.00 0.00 49 999.0
20260505120006 18 0 0.0 0.0 0.00 0.00 0.00 46 1141.3
20260505113003 20 0 0.0 0.0 0.00 0.00 0.00 43 999.0
20260505100003 20 0 0.0 0.0 0.00 0.00 0.00 41 998.9
20260505093004 20 0 0.0 0.0 0.00 0.00 0.00 42 999.0
20260505090005 18 0 0.0 0.0 0.00 0.00 0.00 53 999.2
20260505083003 18 0 0.0 0.0 0.00 0.00 0.00 53 999.3
20260505080004 17 0 0.0 0.0 0.00 0.00 0.00 58 999.1
20260505073004 17 0 0.0 0.0 0.00 0.00 0.00 63 999.2
20260505070001 15 0 0.0 0.0 0.00 0.00 0.00 69 999.3
20260505063003 13 0 0.0 0.0 0.00 0.00 0.00 73 999.2
20260505060004 13 0 0.0 0.0 0.00 0.00 0.00 77 999.1
20260505053002 13 0 0.0 0.0 0.00 0.00 0.00 76 998.7
20260505040005 10 0 0.0 0.0 0.00 0.00 0.00 92 998.0